Snowfall_Accumulation
0.0 0.0 0.0 0.0 0.0 0.0 0.0 0.0 0.0 0.0 0.0 0.0 0.0 0.0 0.0 0.0 0.0 0.0 0.0 0.0 0.0 0.0 0.0 0.0 0.0 0.0 0.0 0.0 0.0 0.0 0.0 0.0 0.0 0.0 0.0 0.0 0.0 0.0 0.0 0.0 0.0 0.0 0.0
0.0 0.0 0.0 0.0 0.0 0.0 0.0 0.0 0.0 0.0 0.0 0.0 0.0 0.0 0.0 0.0 0.0 0.0 0.0 0.0 0.0 0.0 0.0 0.0 0.0 0.0 0.0 0.0 0.0 0.0 0.0 0.0 0.0 0.0 0.0 0.0 0.0 0.0 0.0 0.0 0.0 0.0 0.0
0.0 0.0 0.0 0.0 0.0 0.0 0.0 0.0 0.0 0.0 0.0 0.0 0.0 0.0 0.0 0.0 0.0 0.0 0.0 0.0 0.0 0.0 0.0 0.0 0.0 0.0 0.0 0.0 0.0 0.0 0.0 0.0 0.0 0.0 0.0 0.0 0.0 0.0 0.0 0.0 0.0 0.0 0.0
0.0 0.0 0.0 0.0 0.0 0.0 0.0 0.0 0.0 0.0 0.0 0.0 0.0 0.0 0.0 0.0 0.0 0.0 0.0 0.0 0.0 0.0 0.0 0.0 0.0 0.0 0.0 0.0 0.0 0.0 0.0 0.0 0.0 0.0 0.0 0.0 0.0 0.0 0.0 0.0 0.0 0.0 0.0
0.0 0.0 0.0 0.0 0.0 0.0 0.0 0.0 0.0 0.0 0.0 0.0 0.0 0.0 0.0 0.0 0.0 0.0 0.0 0.0 0.0 0.0 0.0 0.0 0.0 0.0 0.0 0.0 0.0 0.0 0.0 0.0 0.0 0.0 0.0 0.0 0.0 0.0 0.0 0.0 0.0 0.0 0.0
0.0 0.0 0.0 0.0 0.0 0.0 0.0 0.0 0.0 0.0 0.0 0.0 0.0 0.0 0.0 0.0 0.0 0.0 0.0 0.0 0.0 0.0 0.0 0.0 0.0 0.0 0.0 0.0 0.0 0.0 0.0 0.0 0.0 0.0 0.0 0.0 0.0 0.0 0.0 0.0 0.0 0.0 0.0
0.0 0.0 0.0 0.0 0.0 0.0 0.0 0.0 0.0 0.0 0.0 0.0 0.0 0.0 0.0 0.0 0.0 0.0 0.0 0.0 0.0 0.0 0.0 0.0 0.0 0.0 0.0 0.0 0.0 0.0 0.0 0.0 0.0 0.0 0.0 0.0 0.0 0.0 0.0 0.0 0.0 0.0 0.0
0.0 0.0 0.0 0.0 0.0 0.0 0.0 0.0 0.0 0.0 0.0 0.0 0.0 0.0 0.0 0.0 0.0 0.0 0.0 0.0 0.0 0.0 0.0 0.0 0.0 0.0 0.0 0.0 0.0 0.0 0.0 0.0 0.0 0.0 0.0 0.0 0.0 0.0 0.0 0.0 0.0 0.0 0.0
0.0 0.0 0.0 0.0 0.0 0.0 0.0 0.0 0.0 0.0 0.0 0.0 0.0 0.0 0.1 0.0 0.0 0.0 0.0 0.0 0.0 0.0 0.0 0.0 0.0 0.0 0.0 0.0 0.0 0.0 0.0 0.0 0.0 0.0 0.0 0.0 0.0 0.0 0.0 0.0 0.0 0.0 0.0
0.0 0.0 0.0 0.0 0.0 0.0 0.0 0.0 0.0 0.0 0.0 0.0 0.0 0.0 0.0 0.0 0.2 0.0 0.0 0.0 0.0 0.0 0.0 0.0 0.0 0.0 0.0 0.0 0.0 0.0 0.0 0.0 0.0 0.0 0.0 0.0 0.0 0.0 0.0 0.0 0.0 0.0 0.0
0.0 0.0 0.0 0.0 0.0 0.0 0.0 0.0 0.0 0.0 0.0 0.0 0.0 0.0 0.0 0.0 0.0 0.1 0.0 0.0 0.0 0.0 0.0 0.0 0.0 0.0 0.0 0.0 0.0 0.0 0.0 0.0 0.0 0.0 0.0 0.0 0.0 0.0 0.0 0.0 0.0 0.0 0.0
0.0 0.0 0.0 0.0 0.0 0.0 0.0 0.0 0.0 0.0 0.0 0.1 0.0 0.0 0.1 0.3 0.2 0.3 0.5 0.0 0.1 0.0 0.0 0.0 0.0 0.0 0.0 0.0 0.0 0.0 0.0 0.0 0.0 0.0 0.0 0.0 0.0 0.0 0.0 0.0 0.0 0.0 0.0
0.0 0.0 0.0 0.0 0.0 0.0 0.0 0.0 0.0 0.0 0.0 0.0 0.1 0.1 0.0 0.1 0.1 0.2 0.4 0.2 0.1 0.0 0.0 0.0 0.0 0.0 0.0 0.0 0.0 0.0 0.0 0.0 0.0 0.0 0.0 0.0 0.0 0.0 0.0 0.0 0.0 0.0 0.0
0.0 0.0 0.0 0.0 0.0 0.0 0.0 0.0 0.0 0.0 0.0 0.1 0.1 0.0 0.1 0.1 0.1 0.2 0.3 0.8 1.4 0.0 0.0 0.0 0.0 0.0 0.0 0.0 0.0 0.0 0.0 0.0 0.0 0.0 0.0 0.0 0.0 0.0 0.0 0.0 0.0 0.0 0.0
0.0 0.0 0.0 0.0 0.0 0.0 0.0 0.0 0.0 0.0 0.0 0.0 0.0 0.1 0.0 0.0 0.0 0.1 0.1 0.3 3.2 4.4 0.4 0.0 0.0 0.0 0.0 0.0 0.0 0.0 0.0 0.0 0.0 0.0 0.0 0.0 0.0 0.0 0.0 0.0 0.0 0.0 0.0
0.2 0.1 0.2 0.0 0.0 0.0 0.0 0.0 0.0 0.0 0.0 0.0 0.0 0.0 0.0 0.0 0.0 0.0 0.0 0.1 0.4 1.4 1.4 0.0 0.0 0.0 0.0 0.0 0.0 0.0 0.0 0.0 0.0 0.0 0.0 0.0 0.0 0.0 0.0 0.0 0.0 0.0 0.0
0.8 0.2 0.2 0.1 0.3 0.6 0.0 0.3 0.2 0.2 0.1 0.0 0.2 0.3 0.2 0.0 0.1 0.0 0.0 0.1 0.1 0.3 0.5 0.0 0.0 0.0 0.0 0.0 0.0 0.0 0.0 0.0 0.0 0.0 0.0 0.0 0.0 0.0 0.0 0.0 0.0 0.0 0.0
0.6 0.4 0.2 0.5 1.5 2.5 1.3 1.6 1.3 0.6 1.7 1.4 0.5 0.9 1.5 0.8 1.1 0.3 0.2 0.1 0.2 0.2 0.4 0.1 0.4 0.2 0.0 0.0 0.0 0.0 0.0 0.0 0.0 0.0 0.0 0.0 0.1 0.0 0.0 0.0 0.0 0.0 0.1
2.8 2.0 0.7 1.4 1.6 2.2 1.4 4.0 3.2 1.0 3.5 3.4 3.7 2.5 2.4 1.8 3.6 3.1 2.0 1.1 0.3 0.6 0.9 0.2 0.2 0.0 0.5 0.2 0.1 0.4 0.2 0.1 0.0 0.0 0.0 0.0 0.0 0.0 0.0 0.0 0.0 0.0 0.0
6.2 5.5 4.9 3.7 2.6 1.7 1.1 1.9 2.3 1.9 1.6 3.2 2.3 2.6 2.9 1.8 4.5 4.7 4.6 5.3 4.0 2.4 1.6 1.6 0.5 0.7 0.8 0.9 1.1 1.0 0.6 0.6 0.4 0.2 0.1 0.0 0.1 0.0 0.0 0.0 0.1 0.0 0.0
15.1 9.9 8.2 4.9 3.0 3.0 4.3 3.1 3.9 2.4 0.7 0.3 0.4 0.4 0.6 0.4 1.0 2.1 3.4 4.6 3.1 5.4 4.9 3.9 2.4 1.0 1.7 0.7 2.6 3.7 2.5 2.2 1.0 1.5 0.4 0.4 0.0 0.0 0.4 0.2 0.0 0.1 0.0
13.0 8.8 10.2 5.0 4.9 3.1 5.4 4.4 5.7 7.2 7.2 5.2 5.7 3.3 1.7 0.3 2.0 0.5 0.6 1.9 3.3 5.8 5.9 5.5 6.4 6.4 4.9 4.0 2.6 5.6 5.8 3.8 4.2 4.1 3.9 2.3 0.4 0.6 0.5 1.1 0.6 0.3 0.1
1.6 2.1 3.4 2.1 1.7 1.9 1.1 1.1 2.4 4.7 6.8 7.2 7.2 7.9 6.1 6.2 4.0 2.5 2.9 1.7 1.5 1.3 4.2 5.3 5.3 6.0 7.6 7.5 6.6 4.4 5.1 8.9 8.6 4.6 4.4 6.1 3.4 1.7 1.6 1.3 1.5 0.3 0.6
0.2 1.7 1.7 1.1 0.6 0.2 0.6 0.6 0.1 1.1 2.4 3.2 3.7 3.2 1.9 1.7 3.3 2.4 4.3 4.3 2.6 2.7 3.4 5.6 8.4 8.4 9.0 9.5 7.8 8.3 5.8 5.9 6.6 7.8 5.7 6.7 8.4 10.6 8.0 8.7 2.1 1.5 1.9
1.7 2.2 1.6 1.6 2.0 1.9 0.9 0.9 1.0 0.9 0.9 1.3 1.1 1.0 1.0 0.9 0.7 1.3 1.1 1.0 1.0 1.3 1.0 1.8 3.0 3.1 4.6 3.4 5.5 7.8 11.2 11.8 12.6 10.5 7.6 10.0 9.5 10.9 10.7 7.6 10.4 5.3 5.5
4.1 3.4 3.1 4.5 3.1 2.6 2.1 2.4 2.1 1.5 1.6 1.3 1.1 0.7 0.4 0.9 1.6 1.8 2.5 2.0 2.2 1.4 1.5 1.5 1.4 0.7 1.6 1.4 1.2 1.9 4.8 9.6 11.3 11.9 9.5 12.8 11.3 12.1 18.2 16.6 16.2 13.2 11.1